Weather History for Yellowstone, WY

Change the Weather History Date:

Wednesday, February 6, 2013

  Actual Average Record
Temperature  
Mean Temperature 18 °F 13 °F  
Max Temperature 29 °F 25 °F 44 °F (2007)
Min Temperature 6 °F 1 °F -36 °F (2014)
Degree Days  
Heating Degree Days 47 52  
Month to date heating degree days 267 312  
Since 1 July heating degree days 6686 6843  
Cooling Degree Days 0 0  
Month to date cooling degree days 0 0  
Year to date cooling degree days 0 0  
Moisture  
Dew Point 9 °F    
Average Humidity 69    
Maximum Humidity 92    
Minimum Humidity 46    
Precipitation  
Precipitation 0.00 in 0.05 in 0.13 in (1999)
Month to date precipitation 0.10 0.29  
Year to date precipitation 1.52 2.40  
Sea Level Pressure  
Sea Level Pressure 30.11 in    
Wind  
Wind Speed 2 mph (WNW)    
Max Wind Speed 14 mph    
Max Gust Speed 24 mph    
T = Trace of Precipitation, MM = Missing Value Source: NWS Daily Summary

Daily Weather History Graph

Daily Weather History Graph

Search for Another Location

Airport:

Trip Planner

Search our weather history database for the weather conditions in past years. The results will help you decide how hot, cold, wet, or windy it might be!

Date:

Astronomy

Feb. 06, 2013 Rise Set
Actual Time 7:33 AM MST 5:38 PM MST
Civil Twilight 7:03 AM MST 6:08 PM MST
Nautical Twilight 6:28 AM MST 6:43 PM MST
Astronomical Twilight 5:54 AM MST 7:17 PM MST
Moon 4:25 AM MST (2/6) 1:55 PM MST (2/6)
Length of Visible Light 11h 05m
Length of Day
10h 04m
Waning Crescent, 16% of the Moon is Illuminated
Feb 6
Waning Crescent
Feb 10
New
Feb 17
First Quarter
Feb 25
Full
Mar 4
Last Quarter

Hourly Weather History & Observations

Time (MST) Temp. Windchill Dew Point Humidity Pressure Visibility Wind Dir Wind Speed Gust Speed Precip Events Conditions
12:56 AM 14.0 °F - 10.9 °F 88% 29.94 in - Calm Calm - N/A   Unknown
1:56 AM 12.0 °F - 9.0 °F 88% 29.94 in - Calm Calm - N/A   Unknown
2:56 AM 10.9 °F - 8.1 °F 88% 29.96 in - Calm Calm - N/A   Unknown
3:56 AM 10.9 °F - 7.0 °F 84% 29.96 in - Calm Calm - N/A   Unknown
4:56 AM 9.0 °F - 6.1 °F 88% 30.00 in - Calm Calm - N/A   Unknown
5:56 AM 12.0 °F 2.7 °F 9.0 °F 88% 30.01 in - WNW 5.8 mph - N/A   Unknown
6:56 AM 8.1 °F - 5.0 °F 87% 30.05 in - Calm Calm - N/A   Unknown
7:56 AM 7.0 °F - 3.0 °F 84% 30.09 in - Calm Calm - N/A   Unknown
8:56 AM 10.0 °F - 6.1 °F 84% 30.10 in - Calm Calm - N/A   Unknown
9:56 AM 21.9 °F - 17.1 °F 82% 30.04 in - Calm Calm - N/A   Unknown
10:56 AM 26.1 °F 19.4 °F 14.0 °F 60% 30.05 in - West 5.8 mph - N/A   Unknown
11:56 AM 25.0 °F 18.1 °F 12.9 °F 60% 30.07 in - WNW 5.8 mph - N/A   Unknown
12:56 PM 26.1 °F 17.6 °F 10.9 °F 53% 30.08 in - West 8.1 mph - N/A   Unknown
1:56 PM 27.0 °F 19.5 °F 8.1 °F 45% 30.07 in - Variable 6.9 mph 20.7 mph N/A   Unknown
2:56 PM 25.0 °F 16.3 °F 9.0 °F 51% 30.12 in - West 8.1 mph 18.4 mph N/A   Unknown
3:56 PM 26.1 °F 19.4 °F 9.0 °F 49% 30.11 in - Variable 5.8 mph - N/A   Unknown
4:56 PM 23.0 °F 14.7 °F 9.0 °F 55% 30.18 in - West 6.9 mph - N/A   Unknown
5:56 PM 19.0 °F - 9.0 °F 65% 30.21 in - Calm Calm - N/A   Unknown
6:56 PM 10.9 °F - 6.1 °F 81% 30.29 in - Calm Calm - N/A   Unknown
7:56 PM 7.0 °F - 3.0 °F 84% 30.35 in - Calm Calm - N/A   Unknown
8:56 PM 10.0 °F - 6.1 °F 84% 30.34 in - Calm Calm - N/A   Unknown
9:56 PM 14.0 °F - 9.0 °F 80% 30.26 in - Calm Calm - N/A   Unknown
10:56 PM 16.0 °F - 10.9 °F 81% 30.23 in - Calm Calm - N/A   Unknown
11:56 PM 17.1 °F - 12.0 °F 81% 30.23 in - Calm Calm - N/A   Unknown